Augusta Bush, GA

3:48 AM EDT on June 25, 2017 (GMT -0400)
Augusta Regional At Bush

Weather History for KAGS - July, 2013

Change the Weather History Date:

Sunday, July 28, 2013

  Actual Average Record
Temperature  
Mean Temperature 81 °F 82 °F  
Max Temperature 91 °F 93 °F 104 °F (1993)
Min Temperature 70 °F 70 °F 60 °F (1962)
Degree Days  
Heating Degree Days 0 0  
Month to date heating degree days 0 0  
Since 1 June heating degree days 0 0  
Since 1 July heating degree days 0 0  
Cooling Degree Days 16 17  
Month to date cooling degree days 414 468  
Year to date cooling degree days 1015 1159  
Since 1 June cooling degree days 806 876  
Growing Degree Days 30 (Base 50)    
Moisture  
Dew Point 71 °F    
Average Humidity 75    
Maximum Humidity 100    
Minimum Humidity 50    
Precipitation  
Precipitation 0.00 in 0.15 in 2.55 in (1960)
Month to date precipitation 8.00 3.88  
Year to date precipitation 38.43 26.10  
Sea Level Pressure  
Sea Level Pressure 29.96 in    
Wind  
Wind Speed 3 mph (WSW)    
Max Wind Speed 12 mph    
Max Gust Speed 17 mph    
Visibility 6 miles    
Events Fog    
T = Trace of Precipitation, MM = Missing Value Source: NWS Daily Summary

Daily Weather History Graph

Daily Weather History Graph

Search for Another Location

Airport or City:

Trip Planner

Search our weather history database for the weather conditions in past years. The results will help you decide how hot, cold, wet, or windy it might be!

Date:

Astronomy

Jul. 28, 2013 Rise Set
Actual Time 6:37 AM EDT 8:30 PM EDT
Civil Twilight 6:10 AM EDT 8:57 PM EDT
Nautical Twilight 5:37 AM EDT 9:30 PM EDT
Astronomical Twilight 5:02 AM EDT 10:05 PM EDT
Moon No Moon Rise 12:55 PM EDT (7/28)
Length of Visible Light 14h 47m
Length of Day
13h 52m
Waning Gibbous, 61% of the Moon is Illuminated
Jul 28
Waning Gibbous
Jul 29
Last Quarter
Aug 6
New
Aug 14
First Quarter
Aug 20
Full

Hourly Weather History & Observations

Time (EDT) Temp. Heat Index Dew Point Humidity Pressure Visibility Wind Dir Wind Speed Gust Speed Precip Events Conditions
12:53 AM 73.0 °F - 72.0 °F 96% 29.93 in 4.0 mi Calm Calm - N/A   Clear
1:53 AM 73.0 °F - 72.0 °F 96% 29.94 in 5.0 mi Calm Calm - N/A   Partly Cloudy
2:53 AM 72.0 °F - 71.1 °F 97% 29.93 in 6.0 mi Calm Calm - N/A   Scattered Clouds
3:53 AM 72.0 °F - 71.1 °F 97% 29.93 in 4.0 mi Calm Calm - N/A   Clear
4:42 AM 71.6 °F - 69.8 °F 94% 29.94 in 1.8 mi Calm Calm - N/A   Scattered Clouds
4:53 AM 71.1 °F - 71.1 °F 100% 29.94 in 1.0 mi Calm Calm - N/A   Scattered Clouds
5:05 AM 71.6 °F - 71.6 °F 100% 29.94 in 2.5 mi Calm Calm - N/A   Partly Cloudy
5:15 AM 71.6 °F - 71.6 °F 100% 29.94 in 4.0 mi Calm Calm - N/A   Partly Cloudy
5:37 AM 69.8 °F - 69.8 °F 100% 29.95 in 1.8 mi Calm Calm - N/A   Mostly Cloudy
5:42 AM 69.8 °F - 69.8 °F 100% 29.95 in 0.8 mi Calm Calm - N/A   Mostly Cloudy
5:53 AM 70.0 °F - 70.0 °F 100% 29.95 in 1.0 mi Calm Calm - N/A   Mostly Cloudy
5:59 AM 71.6 °F - 69.8 °F 94% 29.95 in 3.0 mi Calm Calm - N/A   Mostly Cloudy
6:15 AM 69.8 °F - 69.8 °F 100% 29.95 in 1.8 mi Calm Calm - 0.01 in   Mostly Cloudy
6:24 AM 71.6 °F - 69.8 °F 94% 29.96 in 0.8 mi Calm Calm - 0.01 in   Mist
6:28 AM 71.6 °F - 69.8 °F 94% 29.96 in 1.2 mi Calm Calm - 0.01 in   Partly Cloudy
6:33 AM 71.6 °F - 69.8 °F 94% 29.96 in 3.0 mi Calm Calm - 0.01 in   Scattered Clouds
6:42 AM 71.6 °F - 69.8 °F 94% 29.96 in 6.0 mi Calm Calm - 0.01 in   Mostly Cloudy
6:53 AM 71.1 °F - 71.1 °F 100% 29.96 in 0.5 mi Calm Calm - 0.01 in Fog Fog
7:53 AM 72.0 °F - 71.1 °F 97% 29.98 in 0.5 mi Variable 5.8 mph - N/A Fog Fog
7:59 AM 71.6 °F - 71.6 °F 100% 29.98 in 1.0 mi Calm Calm - N/A   Mist
8:17 AM 73.4 °F - 71.6 °F 94% 29.99 in 2.5 mi Calm Calm - N/A   Scattered Clouds
8:53 AM 73.9 °F - 73.0 °F 97% 29.99 in 2.5 mi Calm Calm - N/A   Scattered Clouds
9:53 AM 79.0 °F - 73.0 °F 82% 29.98 in 8.0 mi Calm Calm - N/A   Clear
10:53 AM 82.9 °F 88.0 °F 72.0 °F 69% 29.99 in 10.0 mi Calm Calm - N/A   Clear
11:53 AM 84.9 °F 88.8 °F 69.1 °F 59% 29.99 in 10.0 mi West 3.5 mph - N/A   Partly Cloudy
12:53 PM 87.1 °F 90.6 °F 68.0 °F 53% 29.98 in 10.0 mi WSW 6.9 mph - N/A   Clear
1:53 PM 89.1 °F 92.9 °F 68.0 °F 50% 29.98 in 10.0 mi SW 6.9 mph - N/A   Clear
2:53 PM 90.0 °F 93.6 °F 68.0 °F 48% 29.96 in 10.0 mi West 6.9 mph - N/A   Partly Cloudy
3:53 PM 90.0 °F 94.5 °F 69.1 °F 50% 29.95 in 10.0 mi West 3.5 mph - N/A   Clear
4:53 PM 89.1 °F 92.9 °F 68.0 °F 50% 29.94 in 10.0 mi WSW 6.9 mph - N/A   Clear
5:53 PM 89.1 °F 93.7 °F 69.1 °F 52% 29.94 in 10.0 mi SSW 6.9 mph - N/A   Clear
6:53 PM 88.0 °F 92.9 °F 70.0 °F 55% 29.94 in 10.0 mi SSW 6.9 mph - N/A   Clear
7:53 PM 84.0 °F 89.0 °F 71.1 °F 65% 29.97 in 10.0 mi Calm Calm - N/A   Clear
8:53 PM 78.1 °F - 73.0 °F 84% 29.99 in 10.0 mi Calm Calm - N/A   Clear
9:53 PM 75.0 °F - 73.0 °F 94% 30.00 in 9.0 mi Calm Calm - N/A   Clear
10:53 PM 75.9 °F - 73.9 °F 94% 30.01 in 9.0 mi Calm Calm - N/A   Scattered Clouds
11:53 PM 77.0 °F - 72.0 °F 84% 30.01 in 10.0 mi SSW 4.6 mph - N/A   Mostly Cloudy